Home   Weather   Gröbming   Past weeks
Flag for Austria

Past Weather in Gröbming, Styria, Austria — Yesterday and Last 2 Weeks

Now
73 °F

Scattered clouds.


Feels Like: 76 °F
Forecast: 76 / 52 °F
Wind: 2 mph from North

Location: Aigen Im Ennstal

Current Time: Jun 19, 2019 at 11:48:20 am

Latest Report: Jun 19, 2019 at 11:00 am


Visibility: 19 mi

Pressure: 29.86 "Hg (27.32 "Hg at 769m altitude)

Humidity: 65%

Dew Point: 60 °F

Location of GröbmingLocation

Past Weather in Gröbming — Graph

°F

Gröbming Temperature Yesterday

Maximum temperature yesterday: 80 °F (at 2:00 pm)
Minimum temperature yesterday: 53 °F (at 6:00 am)
Average temperature yesterday: 65 °F

High & Low Weather Summary for the Past Weeks

 TemperatureHumidityPressure
High92 °F (Jun 14, 6:00 pm)99% (Jun 16, 2:00 am)30.34 "Hg (Jun 16, 2:00 am)
Low47 °F (Jun 9, 6:00 am)19% (Jun 14, 6:00 pm)29.61 "Hg (Jun 5, 5:00 pm)
Average68 °F64%29.94 "Hg
* Reported Jun 4 10:00 am — Jun 19 10:00 am, Gröbming. Weather by CustomWeather, © 2019

Note: Actual official high and low records may vary slightly from our data, if they occured in-between our weather recording intervals... More about our weather records

Advertising

Gröbming Weather History for the Previous 24 Hours

Scroll right to see more
 ConditionsComfort  
Time TempWeatherWind HumidityBarometerVisibility
10:00 am
Wed, Jun 19
68 °FMild.1 mph62%29.92 "HgN/A
9:00 am64 °FMild.1 mph69%29.96 "HgN/A
8:00 am59 °FPassing clouds.1 mph81%29.99 "Hg19 mi
7:00 am54 °FPassing clouds.2 mph93%30.02 "Hg19 mi
6:00 am51 °FCool.1 mph95%30.04 "HgN/A
5:00 am54 °FFog.1 mph92%30.02 "Hg12 mi
4:00 am51 °FCool.1 mph95%30.04 "HgN/A
3:00 am54 °FCool.No wind90%30.03 "HgN/A
2:00 am55 °FClear.1 mph89%30.02 "Hg12 mi
1:00 am57 °FCool.1 mph89%30.01 "HgN/A
12:00 am58 °FCool.No wind88%30.01 "HgN/A
11:00 pm
Tue, Jun 18
60 °FPassing clouds.1 mph85%29.98 "Hg12 mi
10:00 pm64 °FMild.1 mph83%29.98 "HgN/A
9:00 pm67 °FMild.No wind73%29.95 "HgN/A
8:00 pm70 °FPartly sunny.1 mph64%29.93 "Hg19 mi
7:00 pm69 °FMild.1 mph70%29.93 "HgN/A
6:00 pm74 °FMild.No wind55%29.92 "HgN/A
5:00 pm74 °FOvercast.2 mph51%29.91 "Hg19 mi
4:00 pm74 °FMild.No wind57%29.92 "HgN/A
2:00 pm80 °FScattered clouds.3 mph40%29.88 "Hg25 mi
1:00 pm78 °FWarm.2 mph49%29.90 "HgN/A
12:00 pm75 °FMild.3 mph57%29.94 "HgN/A
11:00 am72 °FScattered clouds.3 mph66%29.97 "Hg25 mi
Weather by CustomWeather, © 2019

See weather overview